Year,Month,Day,Hour,Minute,Value (Times are PST for windgust in km/hr)
2015,12,10,00,00,20.90
2015,12,10,00,01,20.90
2015,12,10,00,02,17.70
2015,12,10,00,03,14.50
2015,12,10,00,04,19.30
2015,12,10,00,05,14.50
2015,12,10,00,06,20.90
2015,12,10,00,07,19.30
2015,12,10,00,08,14.50
2015,12,10,00,09,25.70
2015,12,10,00,10,22.50
2015,12,10,00,11,11.30
2015,12,10,00,12,9.60
2015,12,10,00,13,25.70
2015,12,10,00,14,14.50
2015,12,10,00,15,20.90
2015,12,10,00,16,16.10
2015,12,10,00,17,24.20
2015,12,10,00,18,19.30
2015,12,10,00,19,17.70
2015,12,10,00,20,20.90
2015,12,10,00,21,11.30
2015,12,10,00,22,20.90
2015,12,10,00,23,22.50
2015,12,10,00,24,9.60
2015,12,10,00,25,11.30
2015,12,10,00,26,29.00
2015,12,10,00,27,14.50
2015,12,10,00,28,14.50
2015,12,10,00,29,20.90
2015,12,10,00,30,17.70
2015,12,10,00,31,24.20
2015,12,10,00,32,22.50
2015,12,10,00,33,22.50
2015,12,10,00,34,19.30
2015,12,10,00,35,24.20
2015,12,10,00,36,29.00
2015,12,10,00,37,22.50
2015,12,10,00,38,29.00
2015,12,10,00,39,19.30
2015,12,10,00,40,27.40
2015,12,10,00,41,25.70
2015,12,10,00,42,35.40
2015,12,10,00,43,27.40
2015,12,10,00,44,20.90
2015,12,10,00,45,27.40
2015,12,10,00,46,27.40
2015,12,10,00,47,22.50
2015,12,10,00,48,25.70
2015,12,10,00,49,27.40
2015,12,10,00,50,27.40
2015,12,10,00,51,27.40
2015,12,10,00,52,25.70
2015,12,10,00,53,22.50
2015,12,10,00,54,22.50
2015,12,10,00,55,14.50
2015,12,10,00,56,22.50
2015,12,10,00,57,22.50
2015,12,10,00,58,30.60
2015,12,10,00,59,22.50
2015,12,10,01,00,19.30
2015,12,10,01,01,16.10
2015,12,10,01,02,17.70
2015,12,10,01,03,17.70
2015,12,10,01,04,19.30
2015,12,10,01,05,16.10
2015,12,10,01,06,20.90
2015,12,10,01,07,24.20
2015,12,10,01,08,22.50
2015,12,10,01,09,16.10
2015,12,10,01,10,22.50
2015,12,10,01,11,20.90
2015,12,10,01,12,19.30
2015,12,10,01,13,19.30
2015,12,10,01,14,20.90
2015,12,10,01,15,24.20
2015,12,10,01,16,17.70
2015,12,10,01,17,19.30
2015,12,10,01,18,9.60
2015,12,10,01,19,14.50
2015,12,10,01,20,22.50
2015,12,10,01,21,19.30
2015,12,10,01,22,14.50
2015,12,10,01,23,11.30
2015,12,10,01,24,11.30
2015,12,10,01,25,9.60
2015,12,10,01,26,17.70
2015,12,10,01,27,14.50
2015,12,10,01,28,14.50
2015,12,10,01,29,14.50
2015,12,10,01,30,19.30
2015,12,10,01,31,20.90
2015,12,10,01,32,27.40
2015,12,10,01,33,16.10
2015,12,10,01,34,11.30
2015,12,10,01,35,20.90
2015,12,10,01,36,19.30
2015,12,10,01,37,14.50
2015,12,10,01,38,11.30
2015,12,10,01,39,17.70
2015,12,10,01,40,14.50
2015,12,10,01,41,19.30
2015,12,10,01,42,16.10
2015,12,10,01,43,16.10
2015,12,10,01,44,14.50
2015,12,10,01,45,17.70
2015,12,10,01,46,11.30
2015,12,10,01,47,17.70
2015,12,10,01,48,14.50
2015,12,10,01,49,19.30
2015,12,10,01,50,16.10
2015,12,10,01,51,14.50
2015,12,10,01,52,20.90
2015,12,10,01,53,19.30
2015,12,10,01,54,16.10
2015,12,10,01,55,8.10
2015,12,10,01,56,17.70
2015,12,10,01,57,17.70
2015,12,10,01,58,17.70
2015,12,10,01,59,16.10
2015,12,10,02,00,17.70
2015,12,10,02,01,16.10
2015,12,10,02,02,17.70
2015,12,10,02,03,19.30
2015,12,10,02,04,12.90
2015,12,10,02,05,24.20
2015,12,10,02,06,9.60
2015,12,10,02,07,19.30
2015,12,10,02,08,16.10
2015,12,10,02,09,14.50
2015,12,10,02,10,9.60
2015,12,10,02,11,16.10
2015,12,10,02,12,24.20
2015,12,10,02,13,12.90
2015,12,10,02,14,11.30
2015,12,10,02,15,20.90
2015,12,10,02,16,19.30
2015,12,10,02,17,9.60
2015,12,10,02,18,11.30
2015,12,10,02,19,16.10
2015,12,10,02,20,9.60
2015,12,10,02,21,11.30
2015,12,10,02,22,9.60
2015,12,10,02,23,11.30
2015,12,10,02,24,30.60
2015,12,10,02,25,6.40
2015,12,10,02,26,14.50
2015,12,10,02,27,12.90
2015,12,10,02,28,11.30
2015,12,10,02,29,16.10
2015,12,10,02,30,6.40
2015,12,10,02,31,8.10
2015,12,10,02,32,19.30
2015,12,10,02,33,9.60
2015,12,10,02,34,14.50
2015,12,10,02,35,14.50
2015,12,10,02,36,11.30
2015,12,10,02,37,11.30
2015,12,10,02,38,17.70
2015,12,10,02,39,16.10
2015,12,10,02,40,9.60
2015,12,10,02,41,11.30
2015,12,10,02,42,14.50
2015,12,10,02,43,24.20
2015,12,10,02,44,19.30
2015,12,10,02,45,11.30
2015,12,10,02,46,19.30
2015,12,10,02,47,11.30
2015,12,10,02,48,19.30
2015,12,10,02,49,16.10
2015,12,10,02,50,19.30
2015,12,10,02,51,29.00
2015,12,10,02,52,22.50
2015,12,10,02,53,25.70
2015,12,10,02,54,22.50
2015,12,10,02,55,25.70
2015,12,10,02,56,25.70
2015,12,10,02,57,24.20
2015,12,10,02,58,16.10
2015,12,10,02,59,9.60
2015,12,10,03,00,17.70
2015,12,10,03,01,19.30
2015,12,10,03,02,19.30
2015,12,10,03,03,16.10
2015,12,10,03,04,20.90
2015,12,10,03,05,19.30
2015,12,10,03,06,19.30
2015,12,10,03,07,19.30
2015,12,10,03,08,20.90
2015,12,10,03,09,12.90
2015,12,10,03,10,14.50
2015,12,10,03,11,20.90
2015,12,10,03,12,16.10
2015,12,10,03,13,19.30
2015,12,10,03,14,11.30
2015,12,10,03,15,19.30
2015,12,10,03,16,17.70
2015,12,10,03,17,24.20
2015,12,10,03,18,17.70
2015,12,10,03,19,14.50
2015,12,10,03,20,20.90
2015,12,10,03,21,17.70
2015,12,10,03,22,9.60
2015,12,10,03,23,20.90
2015,12,10,03,24,14.50
2015,12,10,03,25,19.30
2015,12,10,03,26,17.70
2015,12,10,03,27,19.30
2015,12,10,03,28,17.70
2015,12,10,03,29,14.50
2015,12,10,03,30,16.10
2015,12,10,03,31,14.50
2015,12,10,03,32,17.70
2015,12,10,03,33,11.30
2015,12,10,03,34,12.90
2015,12,10,03,35,11.30
2015,12,10,03,36,20.90
2015,12,10,03,37,20.90
2015,12,10,03,38,22.50
2015,12,10,03,39,24.20
2015,12,10,03,40,20.90
2015,12,10,03,41,17.70
2015,12,10,03,42,11.30
2015,12,10,03,43,19.30
2015,12,10,03,44,17.70
2015,12,10,03,45,25.70
2015,12,10,03,46,17.70
2015,12,10,03,47,12.90
2015,12,10,03,48,17.70
2015,12,10,03,49,11.30
2015,12,10,03,50,20.90
2015,12,10,03,51,11.30
2015,12,10,03,52,19.30
2015,12,10,03,53,14.50
2015,12,10,03,54,19.30
2015,12,10,03,55,24.20
2015,12,10,03,56,19.30
2015,12,10,03,57,22.50
2015,12,10,03,58,20.90
2015,12,10,03,59,24.20
2015,12,10,04,00,33.80
2015,12,10,04,01,29.00
2015,12,10,04,02,30.60
2015,12,10,04,03,30.60
2015,12,10,04,04,32.20
2015,12,10,04,05,33.80
2015,12,10,04,06,27.40
2015,12,10,04,07,30.60
2015,12,10,04,08,20.90
2015,12,10,04,09,25.70
2015,12,10,04,10,35.40
2015,12,10,04,11,29.00
2015,12,10,04,12,30.60
2015,12,10,04,13,20.90
2015,12,10,04,14,29.00
2015,12,10,04,15,27.40
2015,12,10,04,16,43.50
2015,12,10,04,17,33.80
2015,12,10,04,18,30.60
2015,12,10,04,19,30.60
2015,12,10,04,20,45.10
2015,12,10,04,21,40.20
2015,12,10,04,22,30.60
2015,12,10,04,23,35.40
2015,12,10,04,24,37.00
2015,12,10,04,25,30.60
2015,12,10,04,26,32.20
2015,12,10,04,27,38.60
2015,12,10,04,28,40.20
2015,12,10,04,29,41.80
2015,12,10,04,30,38.60
2015,12,10,04,31,32.20
2015,12,10,04,32,43.50
2015,12,10,04,33,37.00
2015,12,10,04,34,46.70
2015,12,10,04,35,35.40
2015,12,10,04,36,48.30
2015,12,10,04,37,37.00
2015,12,10,04,38,32.20
2015,12,10,04,39,33.80
2015,12,10,04,40,38.60
2015,12,10,04,41,33.80
2015,12,10,04,42,37.00
2015,12,10,04,43,46.70
2015,12,10,04,44,37.00
2015,12,10,04,45,29.00
2015,12,10,04,46,29.00
2015,12,10,04,47,32.20
2015,12,10,04,48,48.30
2015,12,10,04,49,53.10
2015,12,10,04,50,48.30
2015,12,10,04,51,45.10
2015,12,10,04,52,41.80
2015,12,10,04,53,37.00
2015,12,10,04,54,56.30
2015,12,10,04,55,48.30
2015,12,10,04,56,45.10
2015,12,10,04,57,48.30
2015,12,10,04,58,38.60
2015,12,10,04,59,40.20
2015,12,10,05,00,33.80
2015,12,10,05,01,38.60
2015,12,10,05,02,32.20
2015,12,10,05,03,49.90
2015,12,10,05,04,33.80
2015,12,10,05,05,43.50
2015,12,10,05,06,41.80
2015,12,10,05,07,45.10
2015,12,10,05,08,35.40
2015,12,10,05,09,33.80
2015,12,10,05,10,29.00
2015,12,10,05,11,40.20
2015,12,10,05,12,49.90
2015,12,10,05,13,49.90
2015,12,10,05,14,49.90
2015,12,10,05,15,48.30
2015,12,10,05,16,53.10
2015,12,10,05,17,45.10
2015,12,10,05,18,41.80
2015,12,10,05,19,56.30
2015,12,10,05,20,57.90
2015,12,10,05,21,45.10
2015,12,10,05,22,38.60
2015,12,10,05,23,46.70
2015,12,10,05,24,40.20
2015,12,10,05,25,41.80
2015,12,10,05,26,43.50
2015,12,10,05,27,35.40
2015,12,10,05,28,56.30
2015,12,10,05,29,29.00
2015,12,10,05,30,46.70
2015,12,10,05,31,41.80
2015,12,10,05,32,35.40
2015,12,10,05,33,45.10
2015,12,10,05,34,51.50
2015,12,10,05,35,49.90
2015,12,10,05,36,43.50
2015,12,10,05,37,43.50
2015,12,10,05,38,49.90
2015,12,10,05,39,41.80
2015,12,10,05,40,33.80
2015,12,10,05,41,51.50
2015,12,10,05,42,45.10
2015,12,10,05,43,43.50
2015,12,10,05,44,48.30
2015,12,10,05,45,53.10
2015,12,10,05,46,46.70
2015,12,10,05,47,38.60
2015,12,10,05,48,45.10
2015,12,10,05,49,56.30
2015,12,10,05,50,54.70
2015,12,10,05,51,53.10
2015,12,10,05,52,46.70
2015,12,10,05,53,62.70
2015,12,10,05,54,51.50
2015,12,10,05,55,53.10
2015,12,10,05,56,48.30
2015,12,10,05,57,53.10
2015,12,10,05,58,37.00
2015,12,10,05,59,38.60
2015,12,10,06,00,41.80
2015,12,10,06,01,43.50
2015,12,10,06,02,49.90
2015,12,10,06,03,46.70
2015,12,10,06,04,53.10
2015,12,10,06,05,35.40
2015,12,10,06,06,49.90
2015,12,10,06,07,41.80
2015,12,10,06,08,56.30
2015,12,10,06,09,53.10
2015,12,10,06,10,46.70
2015,12,10,06,11,57.90
2015,12,10,06,12,49.90
2015,12,10,06,13,40.20
2015,12,10,06,14,56.30
2015,12,10,06,15,49.90
2015,12,10,06,16,49.90
2015,12,10,06,17,41.80
2015,12,10,06,18,45.10
2015,12,10,06,19,54.70
2015,12,10,06,20,53.10
2015,12,10,06,21,48.30
2015,12,10,06,22,56.30
2015,12,10,06,23,48.30
2015,12,10,06,24,45.10
2015,12,10,06,25,53.10
2015,12,10,06,26,53.10
2015,12,10,06,27,59.50
2015,12,10,06,28,53.10
2015,12,10,06,29,53.10
2015,12,10,06,30,67.60
2015,12,10,06,31,49.90
2015,12,10,06,32,54.70
2015,12,10,06,33,53.10
2015,12,10,06,34,54.70
2015,12,10,06,35,46.70
2015,12,10,06,36,46.70
2015,12,10,06,37,49.90
2015,12,10,06,38,51.50
2015,12,10,06,39,45.10
2015,12,10,06,40,40.20
2015,12,10,06,41,46.70
2015,12,10,06,42,38.60
2015,12,10,06,43,48.30
2015,12,10,06,44,66.00
2015,12,10,06,45,57.90
2015,12,10,06,46,54.70
2015,12,10,06,47,37.00
2015,12,10,06,48,37.00
2015,12,10,06,49,46.70
2015,12,10,06,50,33.80
2015,12,10,06,51,53.10
2015,12,10,06,52,41.80
2015,12,10,06,53,51.50
2015,12,10,06,54,46.70
2015,12,10,06,55,56.30
2015,12,10,06,56,49.90
2015,12,10,06,57,46.70
2015,12,10,06,58,48.30
2015,12,10,06,59,33.80
2015,12,10,07,00,54.70
2015,12,10,07,01,46.70
2015,12,10,07,02,43.50
2015,12,10,07,03,35.40
2015,12,10,07,04,51.50
2015,12,10,07,05,53.10
2015,12,10,07,06,53.10
2015,12,10,07,07,53.10
2015,12,10,07,08,51.50
2015,12,10,07,09,41.80
2015,12,10,07,10,54.70
2015,12,10,07,11,43.50
2015,12,10,07,12,45.10
2015,12,10,07,13,51.50
2015,12,10,07,14,54.70
2015,12,10,07,15,48.30
2015,12,10,07,16,48.30
2015,12,10,07,17,41.80
2015,12,10,07,18,62.70
2015,12,10,07,19,51.50
2015,12,10,07,20,45.10
2015,12,10,07,21,40.20
2015,12,10,07,22,45.10
2015,12,10,07,23,41.80
2015,12,10,07,24,41.80
2015,12,10,07,25,53.10
2015,12,10,07,26,49.90
2015,12,10,07,27,37.00
2015,12,10,07,28,37.00
2015,12,10,07,29,49.90
2015,12,10,07,30,37.00
2015,12,10,07,31,51.50
2015,12,10,07,32,40.20
2015,12,10,07,33,61.20
2015,12,10,07,34,46.70
2015,12,10,07,35,48.30
2015,12,10,07,36,38.60
2015,12,10,07,37,35.40
2015,12,10,07,38,53.10
2015,12,10,07,39,38.60
2015,12,10,07,40,48.30
2015,12,10,07,41,45.10
2015,12,10,07,42,49.90
2015,12,10,07,43,43.50
2015,12,10,07,44,40.20
2015,12,10,07,45,30.60
2015,12,10,07,46,43.50
2015,12,10,07,47,46.70
2015,12,10,07,48,40.20
2015,12,10,07,49,43.50
2015,12,10,07,50,29.00
2015,12,10,07,51,41.80
2015,12,10,07,52,32.20
2015,12,10,07,53,49.90
2015,12,10,07,54,51.50
2015,12,10,07,55,59.50
2015,12,10,07,56,38.60
2015,12,10,07,57,45.10
2015,12,10,07,58,59.50
2015,12,10,07,59,41.80
2015,12,10,08,00,59.50
2015,12,10,08,01,53.10
2015,12,10,08,02,53.10
2015,12,10,08,03,38.60
2015,12,10,08,04,46.70
2015,12,10,08,05,51.50
2015,12,10,08,06,46.70
2015,12,10,08,07,41.80
2015,12,10,08,08,45.10
2015,12,10,08,09,41.80
2015,12,10,08,10,64.40
2015,12,10,08,11,48.30
2015,12,10,08,12,53.10
2015,12,10,08,13,41.80
2015,12,10,08,14,51.50
2015,12,10,08,15,48.30
2015,12,10,08,16,64.40
2015,12,10,08,17,59.50
2015,12,10,08,18,53.10
2015,12,10,08,19,40.20
2015,12,10,08,20,35.40
2015,12,10,08,21,48.30
2015,12,10,08,22,57.90
2015,12,10,08,23,43.50
2015,12,10,08,24,45.10
2015,12,10,08,25,54.70
2015,12,10,08,26,57.90
2015,12,10,08,27,53.10
2015,12,10,08,28,41.80
2015,12,10,08,29,41.80
2015,12,10,08,30,46.70
2015,12,10,08,31,54.70
2015,12,10,08,32,45.10
2015,12,10,08,33,51.50
2015,12,10,08,34,54.70
2015,12,10,08,35,41.80
2015,12,10,08,36,46.70
2015,12,10,08,37,45.10
2015,12,10,08,38,46.70
2015,12,10,08,39,35.40
2015,12,10,08,40,57.90
2015,12,10,08,41,64.40
2015,12,10,08,42,49.90
2015,12,10,08,43,32.20
2015,12,10,08,44,43.50
2015,12,10,08,45,30.60
2015,12,10,08,46,37.00
2015,12,10,08,47,38.60
2015,12,10,08,48,49.90
2015,12,10,08,49,48.30
2015,12,10,08,50,46.70
2015,12,10,08,51,48.30
2015,12,10,08,52,46.70
2015,12,10,08,53,48.30
2015,12,10,08,54,46.70
2015,12,10,08,55,45.10
2015,12,10,08,56,33.80
2015,12,10,08,57,48.30
2015,12,10,08,58,45.10
2015,12,10,08,59,38.60
2015,12,10,09,00,46.70
2015,12,10,09,01,45.10
2015,12,10,09,02,41.80
2015,12,10,09,03,35.40
2015,12,10,09,04,53.10
2015,12,10,09,05,45.10
2015,12,10,09,06,35.40
2015,12,10,09,07,40.20
2015,12,10,09,08,48.30
2015,12,10,09,09,48.30
2015,12,10,09,10,46.70
2015,12,10,09,11,35.40
2015,12,10,09,12,54.70
2015,12,10,09,13,41.80
2015,12,10,09,14,45.10
2015,12,10,09,15,45.10
2015,12,10,09,16,41.80
2015,12,10,09,17,49.90
2015,12,10,09,18,53.10
2015,12,10,09,19,33.80
2015,12,10,09,20,53.10
2015,12,10,09,21,49.90
2015,12,10,09,22,33.80
2015,12,10,09,23,48.30
2015,12,10,09,24,45.10
2015,12,10,09,25,38.60
2015,12,10,09,26,40.20
2015,12,10,09,27,38.60
2015,12,10,09,28,38.60
2015,12,10,09,29,48.30
2015,12,10,09,30,33.80
2015,12,10,09,31,48.30
2015,12,10,09,32,40.20
2015,12,10,09,33,53.10
2015,12,10,09,34,46.70
2015,12,10,09,35,37.00
2015,12,10,09,36,41.80
2015,12,10,09,37,37.00
2015,12,10,09,38,45.10
2015,12,10,09,39,51.50
2015,12,10,09,40,37.00
2015,12,10,09,41,38.60
2015,12,10,09,42,25.70
2015,12,10,09,43,27.40
2015,12,10,09,44,41.80
2015,12,10,09,45,53.10
2015,12,10,09,46,49.90
2015,12,10,09,47,43.50
2015,12,10,09,48,40.20
2015,12,10,09,49,51.50
2015,12,10,09,50,38.60
2015,12,10,09,51,38.60
2015,12,10,09,52,32.20
2015,12,10,09,53,45.10
2015,12,10,09,54,30.60
2015,12,10,09,55,38.60
2015,12,10,09,56,43.50
2015,12,10,09,57,45.10
2015,12,10,09,58,33.80
2015,12,10,09,59,45.10
2015,12,10,10,00,41.80
2015,12,10,10,01,37.00
2015,12,10,10,02,40.20
2015,12,10,10,03,35.40
2015,12,10,10,04,41.80
2015,12,10,10,05,45.10
2015,12,10,10,06,45.10
2015,12,10,10,07,32.20
2015,12,10,10,08,37.00
2015,12,10,10,09,53.10
2015,12,10,10,10,53.10
2015,12,10,10,11,56.30
2015,12,10,10,12,46.70
2015,12,10,10,13,53.10
2015,12,10,10,14,64.40
2015,12,10,10,15,53.10
2015,12,10,10,16,40.20
2015,12,10,10,17,35.40
2015,12,10,10,18,40.20
2015,12,10,10,19,48.30
2015,12,10,10,20,40.20
2015,12,10,10,21,41.80
2015,12,10,10,22,41.80
2015,12,10,10,23,45.10
2015,12,10,10,24,40.20
2015,12,10,10,25,38.60
2015,12,10,10,26,40.20
2015,12,10,10,27,46.70
2015,12,10,10,28,45.10
2015,12,10,10,29,46.70
2015,12,10,10,30,46.70
2015,12,10,10,31,33.80
2015,12,10,10,32,38.60
2015,12,10,10,33,51.50
2015,12,10,10,34,37.00
2015,12,10,10,35,41.80
2015,12,10,10,36,40.20
2015,12,10,10,37,49.90
2015,12,10,10,38,35.40
2015,12,10,10,39,46.70
2015,12,10,10,40,33.80
2015,12,10,10,41,46.70
2015,12,10,10,42,40.20
2015,12,10,10,43,40.20
2015,12,10,10,44,35.40
2015,12,10,10,45,32.20
2015,12,10,10,46,45.10
2015,12,10,10,47,46.70
2015,12,10,10,48,46.70
2015,12,10,10,49,53.10
2015,12,10,10,50,41.80
2015,12,10,10,51,45.10
2015,12,10,10,52,53.10
2015,12,10,10,53,40.20
2015,12,10,10,54,46.70
2015,12,10,10,55,49.90
2015,12,10,10,56,40.20
2015,12,10,10,57,37.00
2015,12,10,10,58,41.80
2015,12,10,10,59,43.50
2015,12,10,11,00,49.90
2015,12,10,11,01,45.10
2015,12,10,11,02,35.40
2015,12,10,11,03,40.20
2015,12,10,11,04,45.10
2015,12,10,11,05,49.90
2015,12,10,11,06,40.20
2015,12,10,11,07,43.50
2015,12,10,11,08,43.50
2015,12,10,11,09,49.90
2015,12,10,11,10,46.70
2015,12,10,11,11,37.00
2015,12,10,11,12,48.30
2015,12,10,11,13,38.60
2015,12,10,11,14,40.20
2015,12,10,11,15,35.40
2015,12,10,11,16,32.20
2015,12,10,11,17,35.40
2015,12,10,11,18,29.00
2015,12,10,11,19,27.40
2015,12,10,11,20,29.00
2015,12,10,11,21,38.60
2015,12,10,11,22,38.60
2015,12,10,11,23,33.80
2015,12,10,11,24,37.00
2015,12,10,11,25,37.00
2015,12,10,11,26,30.60
2015,12,10,11,27,27.40
2015,12,10,11,28,29.00
2015,12,10,11,29,37.00
2015,12,10,11,30,30.60
2015,12,10,11,31,30.60
2015,12,10,11,32,29.00
2015,12,10,11,33,32.20
2015,12,10,11,34,29.00
2015,12,10,11,35,29.00
2015,12,10,11,36,37.00
2015,12,10,11,37,27.40
2015,12,10,11,38,22.50
2015,12,10,11,39,24.20
2015,12,10,11,40,27.40
2015,12,10,11,41,22.50
2015,12,10,11,42,19.30
2015,12,10,11,43,29.00
2015,12,10,11,44,24.20
2015,12,10,11,45,20.90
2015,12,10,11,46,27.40
2015,12,10,11,47,20.90
2015,12,10,11,48,29.00
2015,12,10,11,49,32.20
2015,12,10,11,50,25.70
2015,12,10,11,51,27.40
2015,12,10,11,52,30.60
2015,12,10,11,53,25.70
2015,12,10,11,54,27.40
2015,12,10,11,55,22.50
2015,12,10,11,56,22.50
2015,12,10,11,57,20.90
2015,12,10,11,58,22.50
2015,12,10,11,59,32.20
2015,12,10,12,00,30.60
2015,12,10,12,01,24.20
2015,12,10,12,02,22.50
2015,12,10,12,03,25.70
2015,12,10,12,04,20.90
2015,12,10,12,05,24.20
2015,12,10,12,06,25.70
2015,12,10,12,07,22.50
2015,12,10,12,08,25.70
2015,12,10,12,09,25.70
2015,12,10,12,10,19.30
2015,12,10,12,11,19.30
2015,12,10,12,12,20.90
2015,12,10,12,13,19.30
2015,12,10,12,14,22.50
2015,12,10,12,15,17.70
2015,12,10,12,16,17.70
2015,12,10,12,17,20.90
2015,12,10,12,18,17.70
2015,12,10,12,19,12.90
2015,12,10,12,20,11.30
2015,12,10,12,21,8.10
2015,12,10,12,22,16.10
2015,12,10,12,23,9.60
2015,12,10,12,24,14.50
2015,12,10,12,25,12.90
2015,12,10,12,26,14.50
2015,12,10,12,27,9.60
2015,12,10,12,28,14.50
2015,12,10,12,29,9.60
2015,12,10,12,30,11.30
2015,12,10,12,31,16.10
2015,12,10,12,32,9.60
2015,12,10,12,33,8.10
2015,12,10,12,34,16.10
2015,12,10,12,35,14.50
2015,12,10,12,36,11.30
2015,12,10,12,37,11.30
2015,12,10,12,38,9.60
2015,12,10,12,39,8.10
2015,12,10,12,40,8.10
2015,12,10,12,41,6.40
2015,12,10,12,42,8.10
2015,12,10,12,43,6.40
2015,12,10,12,44,6.40
2015,12,10,12,45,6.40
2015,12,10,12,46,16.10
2015,12,10,12,47,11.30
2015,12,10,12,48,9.60
2015,12,10,12,49,8.10
2015,12,10,12,50,11.30
2015,12,10,12,51,17.70
2015,12,10,12,52,22.50
2015,12,10,12,53,22.50
2015,12,10,12,54,20.90
2015,12,10,12,55,17.70
2015,12,10,12,56,16.10
2015,12,10,12,57,14.50
2015,12,10,12,58,11.30
2015,12,10,12,59,11.30
2015,12,10,13,00,22.50
2015,12,10,13,01,17.70
2015,12,10,13,02,29.00
2015,12,10,13,03,19.30
2015,12,10,13,04,20.90
2015,12,10,13,05,16.10
2015,12,10,13,06,14.50
2015,12,10,13,07,19.30
2015,12,10,13,08,27.40
2015,12,10,13,09,22.50
2015,12,10,13,10,17.70
2015,12,10,13,11,17.70
2015,12,10,13,12,17.70
2015,12,10,13,13,19.30
2015,12,10,13,14,19.30
2015,12,10,13,15,16.10
2015,12,10,13,16,14.50
2015,12,10,13,17,12.90
2015,12,10,13,18,19.30
2015,12,10,13,19,20.90
2015,12,10,13,20,11.30
2015,12,10,13,21,11.30
2015,12,10,13,22,16.10
2015,12,10,13,23,17.70
2015,12,10,13,24,20.90
2015,12,10,13,25,19.30
2015,12,10,13,26,17.70
2015,12,10,13,27,16.10
2015,12,10,13,28,25.70
2015,12,10,13,29,14.50
2015,12,10,13,30,19.30
2015,12,10,13,31,17.70
2015,12,10,13,32,16.10
2015,12,10,13,33,19.30
2015,12,10,13,34,19.30
2015,12,10,13,35,8.10
2015,12,10,13,36,8.10
2015,12,10,13,37,14.50
2015,12,10,13,38,11.30
2015,12,10,13,39,16.10
2015,12,10,13,40,9.60
2015,12,10,13,41,14.50
2015,12,10,13,42,20.90
2015,12,10,13,43,17.70
2015,12,10,13,44,12.90
2015,12,10,13,45,9.60
2015,12,10,13,46,8.10
2015,12,10,13,47,11.30
2015,12,10,13,48,14.50
2015,12,10,13,49,11.30
2015,12,10,13,50,20.90
2015,12,10,13,51,22.50
2015,12,10,13,52,8.10
2015,12,10,13,53,11.30
2015,12,10,13,54,6.40
2015,12,10,13,55,8.10
2015,12,10,13,56,17.70
2015,12,10,13,57,9.60
2015,12,10,13,58,16.10
2015,12,10,13,59,19.30
2015,12,10,14,00,9.60
2015,12,10,14,01,11.30
2015,12,10,14,02,16.10
2015,12,10,14,03,9.60
2015,12,10,14,04,12.90
2015,12,10,14,05,9.60
2015,12,10,14,06,14.50
2015,12,10,14,07,11.30
2015,12,10,14,08,11.30
2015,12,10,14,09,9.60
2015,12,10,14,10,6.40
2015,12,10,14,11,8.10
2015,12,10,14,12,9.60
2015,12,10,14,13,12.90
2015,12,10,14,14,16.10
2015,12,10,14,15,11.30
2015,12,10,14,16,14.50
2015,12,10,14,17,8.10
2015,12,10,14,18,6.40
2015,12,10,14,19,16.10
2015,12,10,14,20,17.70
2015,12,10,14,21,20.90
2015,12,10,14,22,17.70
2015,12,10,14,23,11.30
2015,12,10,14,24,19.30
2015,12,10,14,25,16.10
2015,12,10,14,26,20.90
2015,12,10,14,27,16.10
2015,12,10,14,28,19.30
2015,12,10,14,29,14.50
2015,12,10,14,30,16.10
2015,12,10,14,31,14.50
2015,12,10,14,32,8.10
2015,12,10,14,33,14.50
2015,12,10,14,34,16.10
2015,12,10,14,35,17.70
2015,12,10,14,36,16.10
2015,12,10,14,37,16.10
2015,12,10,14,38,17.70
2015,12,10,14,39,16.10
2015,12,10,14,40,14.50
2015,12,10,14,41,9.60
2015,12,10,14,42,12.90
2015,12,10,14,43,11.30
2015,12,10,14,44,17.70
2015,12,10,14,45,19.30
2015,12,10,14,46,16.10
2015,12,10,14,47,24.20
2015,12,10,14,48,22.50
2015,12,10,14,49,20.90
2015,12,10,14,50,16.10
2015,12,10,14,51,24.20
2015,12,10,14,52,25.70
2015,12,10,14,53,22.50
2015,12,10,14,54,14.50
2015,12,10,14,55,17.70
2015,12,10,14,56,20.90
2015,12,10,14,57,17.70
2015,12,10,14,58,19.30
2015,12,10,14,59,14.50
2015,12,10,15,00,20.90
2015,12,10,15,01,17.70
2015,12,10,15,02,22.50
2015,12,10,15,03,24.20
2015,12,10,15,04,24.20
2015,12,10,15,05,17.70
2015,12,10,15,06,17.70
2015,12,10,15,07,22.50
2015,12,10,15,08,24.20
2015,12,10,15,09,20.90
2015,12,10,15,10,27.40
2015,12,10,15,11,27.40
2015,12,10,15,12,17.70
2015,12,10,15,13,22.50
2015,12,10,15,14,19.30
2015,12,10,15,15,19.30
2015,12,10,15,16,27.40
2015,12,10,15,17,22.50
2015,12,10,15,18,24.20
2015,12,10,15,19,22.50
2015,12,10,15,20,27.40
2015,12,10,15,21,27.40
2015,12,10,15,22,25.70
2015,12,10,15,23,22.50
2015,12,10,15,24,17.70
2015,12,10,15,25,20.90
2015,12,10,15,26,19.30
2015,12,10,15,27,16.10
2015,12,10,15,28,14.50
2015,12,10,15,29,16.10
2015,12,10,15,30,17.70
2015,12,10,15,31,19.30
2015,12,10,15,32,19.30
2015,12,10,15,33,20.90
2015,12,10,15,34,24.20
2015,12,10,15,35,33.80
2015,12,10,15,36,29.00
2015,12,10,15,37,27.40
2015,12,10,15,38,22.50
2015,12,10,15,39,22.50
2015,12,10,15,40,24.20
2015,12,10,15,41,22.50
2015,12,10,15,42,24.20
2015,12,10,15,43,29.00
2015,12,10,15,44,20.90
2015,12,10,15,45,22.50
2015,12,10,15,46,22.50
2015,12,10,15,47,22.50
2015,12,10,15,48,25.70
2015,12,10,15,49,24.20
2015,12,10,15,50,19.30
2015,12,10,15,51,20.90
2015,12,10,15,52,14.50
2015,12,10,15,53,16.10
2015,12,10,15,54,8.10
2015,12,10,15,55,11.30
2015,12,10,15,56,14.50
2015,12,10,15,57,14.50
2015,12,10,15,58,14.50
2015,12,10,15,59,12.90
2015,12,10,16,00,17.70
2015,12,10,16,01,19.30
2015,12,10,16,02,19.30
2015,12,10,16,03,20.90
2015,12,10,16,04,20.90
2015,12,10,16,05,22.50
2015,12,10,16,06,22.50
2015,12,10,16,07,19.30
2015,12,10,16,08,19.30
2015,12,10,16,09,19.30
2015,12,10,16,10,16.10
2015,12,10,16,11,20.90
2015,12,10,16,12,19.30
2015,12,10,16,13,24.20
2015,12,10,16,14,20.90
2015,12,10,16,15,24.20
2015,12,10,16,16,19.30
2015,12,10,16,17,19.30
2015,12,10,16,18,19.30
2015,12,10,16,19,22.50
2015,12,10,16,20,20.90
2015,12,10,16,21,20.90
2015,12,10,16,22,22.50
2015,12,10,16,23,16.10
2015,12,10,16,24,16.10
2015,12,10,16,25,19.30
2015,12,10,16,26,27.40
2015,12,10,16,27,29.00
2015,12,10,16,28,33.80
2015,12,10,16,29,33.80
2015,12,10,16,30,29.00
2015,12,10,16,31,29.00
2015,12,10,16,32,25.70
2015,12,10,16,33,27.40
2015,12,10,16,34,27.40
2015,12,10,16,35,22.50
2015,12,10,16,36,25.70
2015,12,10,16,37,24.20
2015,12,10,16,38,17.70
2015,12,10,16,39,16.10
2015,12,10,16,40,9.60
2015,12,10,16,41,11.30
2015,12,10,16,42,19.30
2015,12,10,16,43,22.50
2015,12,10,16,44,20.90
2015,12,10,16,45,20.90
2015,12,10,16,46,19.30
2015,12,10,16,47,17.70
2015,12,10,16,48,17.70
2015,12,10,16,49,17.70
2015,12,10,16,50,22.50
2015,12,10,16,51,19.30
2015,12,10,16,52,17.70
2015,12,10,16,53,16.10
2015,12,10,16,54,14.50
2015,12,10,16,55,11.30
2015,12,10,16,56,11.30
2015,12,10,16,57,17.70
2015,12,10,16,58,24.20
2015,12,10,16,59,22.50
2015,12,10,17,00,24.20
2015,12,10,17,01,27.40
2015,12,10,17,02,22.50
2015,12,10,17,03,29.00
2015,12,10,17,04,20.90
2015,12,10,17,05,24.20
2015,12,10,17,06,27.40
2015,12,10,17,07,24.20
2015,12,10,17,08,20.90
2015,12,10,17,09,22.50
2015,12,10,17,10,20.90
2015,12,10,17,11,29.00
2015,12,10,17,12,27.40
2015,12,10,17,13,17.70
2015,12,10,17,14,22.50
2015,12,10,17,15,25.70
2015,12,10,17,16,25.70
2015,12,10,17,17,33.80
2015,12,10,17,18,27.40
2015,12,10,17,19,22.50
2015,12,10,17,20,27.40
2015,12,10,17,21,25.70